Time,TemperatureF,DewpointF,PressureIn,WindDirection,WindDirectionDegrees,WindSpeedMPH,WindSpeedGustMPH,Humidity,HourlyPrecipIn,Conditions,Clouds,dailyrainin,SolarRadiationWatts/m^2,SoftwareType,DateUTC
2013-02-03 00:21:00,8.0,4.0,-100.00,East,97,0.0,3.0,84,0.00,,,0.00,0.000000,,2013-02-03 09:21:00,
2013-02-03 00:31:00,8.0,4.0,-100.00,East,97,0.0,3.0,84,0.00,,,0.00,0.000000,,2013-02-03 09:31:00,
2013-02-03 01:21:00,6.0,2.0,-100.00,SE,140,0.0,2.0,83,-99.99,,,0.00,0.000000,,2013-02-03 10:21:00,
2013-02-03 01:31:00,6.0,2.0,-100.00,SE,140,0.0,2.0,83,-99.99,,,0.00,0.000000,,2013-02-03 10:31:00,
2013-02-03 02:22:00,7.0,3.0,-100.00,NNE,22,1.0,3.0,84,0.00,,,0.00,0.000000,,2013-02-03 11:22:00,
2013-02-03 03:22:00,11.0,7.0,-100.00,WSW,257,0.0,3.0,84,0.00,,,0.00,0.000000,,2013-02-03 12:22:00,
2013-02-03 04:21:00,13.0,9.0,-100.00,SW,227,0.0,3.0,85,-99.99,,,0.00,0.000000,,2013-02-03 13:21:00,
2013-02-03 04:32:00,13.0,9.0,-100.00,SW,227,0.0,3.0,85,-99.99,,,0.00,0.000000,,2013-02-03 13:32:00,
2013-02-03 04:41:00,13.0,9.0,-100.00,SW,227,0.0,3.0,85,-99.99,,,0.00,0.000000,,2013-02-03 13:41:00,
2013-02-03 04:52:00,13.0,9.0,-100.00,SW,227,0.0,3.0,85,-99.99,,,0.00,0.000000,,2013-02-03 13:52:00,
2013-02-03 05:21:00,12.0,8.0,-100.00,SW,221,0.0,3.0,85,0.00,,,0.00,0.000000,,2013-02-03 14:21:00,
2013-02-03 05:32:00,12.0,8.0,-100.00,SW,221,0.0,3.0,85,0.00,,,0.00,0.000000,,2013-02-03 14:32:00,
2013-02-03 05:42:00,12.0,8.0,-100.00,SW,221,0.0,3.0,85,0.00,,,0.00,0.000000,,2013-02-03 14:42:00,
2013-02-03 05:52:00,12.0,8.0,-100.00,SW,221,0.0,3.0,85,0.00,,,0.00,0.000000,,2013-02-03 14:52:00,
2013-02-03 06:22:00,12.0,8.0,-100.00,NNW,334,0.0,3.0,85,0.00,,,0.00,0.000000,,2013-02-03 15:22:00,
2013-02-03 06:32:00,12.0,8.0,-100.00,NNW,334,0.0,3.0,85,0.00,,,0.00,0.000000,,2013-02-03 15:32:00,
2013-02-03 06:41:00,12.0,8.0,-100.00,NNW,334,0.0,3.0,85,0.00,,,0.00,0.000000,,2013-02-03 15:41:00,
2013-02-03 06:51:00,12.0,8.0,-100.00,NNW,334,0.0,3.0,85,0.00,,,0.00,0.000000,,2013-02-03 15:51:00,
2013-02-03 07:21:00,13.0,9.0,-100.00,ENE,75,1.0,3.0,85,0.00,,,-99.99,0.000000,,2013-02-03 16:21:00,
2013-02-03 07:32:00,13.0,9.0,-100.00,ENE,75,1.0,3.0,85,0.00,,,-99.99,0.000000,,2013-02-03 16:32:00,
2013-02-03 07:41:00,13.0,9.0,-100.00,ENE,75,1.0,3.0,85,0.00,,,-99.99,0.000000,,2013-02-03 16:41:00,
2013-02-03 07:52:00,13.0,9.0,-100.00,ENE,75,1.0,3.0,85,0.00,,,-99.99,0.000000,,2013-02-03 16:52:00,
2013-02-03 08:21:00,13.0,9.0,-100.00,North,352,1.0,3.0,85,0.00,,,-99.99,0.000000,,2013-02-03 17:21:00,
2013-02-03 08:31:00,13.0,9.0,-100.00,North,352,1.0,3.0,85,0.00,,,-99.99,0.000000,,2013-02-03 17:31:00,
2013-02-03 08:42:00,13.0,9.0,-100.00,North,352,1.0,3.0,85,0.00,,,-99.99,0.000000,,2013-02-03 17:42:00,
2013-02-03 08:52:00,13.0,9.0,-100.00,North,352,1.0,3.0,85,0.00,,,-99.99,0.000000,,2013-02-03 17:52:00,
2013-02-03 09:23:00,13.0,9.0,-100.00,West,280,1.0,2.0,85,0.00,,,-99.99,0.000000,,2013-02-03 18:23:00,
2013-02-03 09:32:00,13.0,9.0,-100.00,West,280,1.0,2.0,85,0.00,,,-99.99,0.000000,,2013-02-03 18:32:00,
2013-02-03 09:41:00,13.0,9.0,-100.00,West,280,1.0,2.0,85,0.00,,,-99.99,0.000000,,2013-02-03 18:41:00,
2013-02-03 09:51:00,13.0,9.0,-100.00,West,280,1.0,2.0,85,0.00,,,-99.99,0.000000,,2013-02-03 18:51:00,
2013-02-03 10:22:00,14.0,10.0,-100.00,NNW,342,0.0,1.0,85,0.00,,,0.00,3.000000,,2013-02-03 19:22:00,
2013-02-03 10:31:00,14.0,10.0,-100.00,NNW,342,0.0,1.0,85,0.00,,,0.00,3.000000,,2013-02-03 19:31:00,
2013-02-03 10:41:00,14.0,10.0,-100.00,NNW,342,0.0,1.0,85,0.00,,,0.00,3.000000,,2013-02-03 19:41:00,
2013-02-03 10:51:00,14.0,10.0,-100.00,NNW,342,0.0,1.0,85,0.00,,,0.00,3.000000,,2013-02-03 19:51:00,
2013-02-03 11:21:00,15.0,11.0,-100.00,East,81,1.0,2.0,84,0.00,,,0.00,9.000000,,2013-02-03 20:21:00,
2013-02-03 11:32:00,15.0,11.0,-100.00,East,81,1.0,2.0,84,0.00,,,0.00,9.000000,,2013-02-03 20:32:00,
2013-02-03 11:42:00,15.0,11.0,-100.00,East,81,1.0,2.0,84,0.00,,,0.00,9.000000,,2013-02-03 20:42:00,
2013-02-03 11:52:00,15.0,11.0,-100.00,East,81,1.0,2.0,84,0.00,,,0.00,9.000000,,2013-02-03 20:52:00,
2013-02-03 12:21:00,17.0,13.0,-100.00,NNE,29,1.0,2.0,84,0.00,,,0.00,10.000000,,2013-02-03 21:21:00,
2013-02-03 12:32:00,17.0,13.0,-100.00,NNE,29,1.0,2.0,84,0.00,,,0.00,10.000000,,2013-02-03 21:32:00,
2013-02-03 12:42:00,17.0,13.0,-100.00,NNE,29,1.0,2.0,84,0.00,,,0.00,10.000000,,2013-02-03 21:42:00,
2013-02-03 12:51:00,17.0,13.0,-100.00,NNE,29,1.0,2.0,84,0.00,,,0.00,10.000000,,2013-02-03 21:51:00,
2013-02-03 13:21:00,18.0,13.0,-100.00,East,79,1.0,3.0,81,0.00,,,0.00,12.000000,,2013-02-03 22:21:00,
2013-02-03 13:32:00,18.0,13.0,-100.00,East,79,1.0,3.0,81,0.00,,,0.00,12.000000,,2013-02-03 22:32:00,
2013-02-03 13:41:00,18.0,13.0,-100.00,East,79,1.0,3.0,81,0.00,,,0.00,12.000000,,2013-02-03 22:41:00,
2013-02-03 13:51:00,18.0,13.0,-100.00,East,79,1.0,3.0,81,0.00,,,0.00,12.000000,,2013-02-03 22:51:00,
2013-02-03 14:22:00,19.0,14.0,-100.00,NE,37,1.0,3.0,81,0.00,,,0.00,10.000000,,2013-02-03 23:22:00,
2013-02-03 14:32:00,19.0,14.0,-100.00,NE,37,1.0,3.0,81,0.00,,,0.00,10.000000,,2013-02-03 23:32:00,
2013-02-03 14:41:00,19.0,14.0,-100.00,NE,37,1.0,3.0,81,0.00,,,0.00,10.000000,,2013-02-03 23:41:00,
2013-02-03 14:52:00,19.0,14.0,-100.00,NE,37,1.0,3.0,81,0.00,,,0.00,10.000000,,2013-02-03 23:52:00,
2013-02-03 15:22:00,19.0,13.0,-100.00,NW,317,0.0,3.0,78,0.00,,,0.00,8.000000,,2013-02-04 00:22:00,
2013-02-03 15:31:00,19.0,13.0,-100.00,NW,317,0.0,3.0,78,0.00,,,0.00,8.000000,,2013-02-04 00:31:00,
2013-02-03 15:41:00,19.0,13.0,-100.00,NW,317,0.0,3.0,78,0.00,,,0.00,8.000000,,2013-02-04 00:41:00,
2013-02-03 15:51:00,19.0,13.0,-100.00,NW,317,0.0,3.0,78,0.00,,,0.00,8.000000,,2013-02-04 00:51:00,
2013-02-03 16:21:00,19.0,15.0,-100.00,North,356,0.0,1.0,83,0.00,,,0.00,3.000000,,2013-02-04 01:21:00,
2013-02-03 16:31:00,19.0,15.0,-100.00,North,356,0.0,1.0,83,0.00,,,0.00,3.000000,,2013-02-04 01:31:00,
2013-02-03 16:41:00,19.0,15.0,-100.00,North,356,0.0,1.0,83,0.00,,,0.00,3.000000,,2013-02-04 01:41:00,
2013-02-03 16:52:00,19.0,15.0,-100.00,North,356,0.0,1.0,83,0.00,,,0.00,3.000000,,2013-02-04 01:52:00,
2013-02-03 17:21:00,19.0,15.0,-100.00,NNE,13,0.0,2.0,85,0.00,,,0.00,0.000000,,2013-02-04 02:21:00,
2013-02-03 17:31:00,19.0,15.0,-100.00,NNE,13,0.0,2.0,85,0.00,,,0.00,0.000000,,2013-02-04 02:31:00,
2013-02-03 17:41:00,19.0,15.0,-100.00,NNE,13,0.0,2.0,85,0.00,,,0.00,0.000000,,2013-02-04 02:41:00,
2013-02-03 17:52:00,19.0,15.0,-100.00,NNE,13,0.0,2.0,85,0.00,,,0.00,0.000000,,2013-02-04 02:52:00,
2013-02-03 18:21:00,18.0,15.0,-100.00,NNE,31,0.0,2.0,86,0.00,,,0.00,0.000000,,2013-02-04 03:21:00,
2013-02-03 18:32:00,18.0,15.0,-100.00,NNE,31,0.0,2.0,86,0.00,,,0.00,0.000000,,2013-02-04 03:32:00,
2013-02-03 18:41:00,18.0,15.0,-100.00,NNE,31,0.0,2.0,86,0.00,,,0.00,0.000000,,2013-02-04 03:41:00,
2013-02-03 18:51:00,18.0,15.0,-100.00,NNE,31,0.0,2.0,86,0.00,,,0.00,0.000000,,2013-02-04 03:51:00,
2013-02-03 19:21:00,18.0,15.0,-100.00,NE,54,0.0,1.0,87,0.00,,,0.00,0.000000,,2013-02-04 04:21:00,
2013-02-03 19:31:00,18.0,15.0,-100.00,NE,54,0.0,1.0,87,0.00,,,0.00,0.000000,,2013-02-04 04:31:00,
2013-02-03 19:41:00,18.0,15.0,-100.00,NE,54,0.0,1.0,87,0.00,,,0.00,0.000000,,2013-02-04 04:41:00,
2013-02-03 19:52:00,18.0,15.0,-100.00,NE,54,0.0,1.0,87,0.00,,,0.00,0.000000,,2013-02-04 04:52:00,
2013-02-03 20:22:00,18.0,15.0,-100.00,NNW,328,1.0,4.0,87,0.00,,,0.00,0.000000,,2013-02-04 05:22:00,
2013-02-03 20:33:00,18.0,15.0,-100.00,NNW,328,1.0,4.0,87,0.00,,,0.00,0.000000,,2013-02-04 05:33:00,
2013-02-03 20:42:00,18.0,15.0,-100.00,NNW,328,1.0,4.0,87,0.00,,,0.00,0.000000,,2013-02-04 05:42:00,
2013-02-03 20:51:00,18.0,15.0,-100.00,NNW,328,1.0,4.0,87,0.00,,,0.00,0.000000,,2013-02-04 05:51:00,
2013-02-03 21:21:00,19.0,16.0,-100.00,NE,47,1.0,4.0,86,0.00,,,0.00,0.000000,,2013-02-04 06:21:00,
2013-02-03 21:31:00,19.0,16.0,-100.00,NE,47,1.0,4.0,86,0.00,,,0.00,0.000000,,2013-02-04 06:31:00,
2013-02-03 21:41:00,19.0,16.0,-100.00,NE,47,1.0,4.0,86,0.00,,,0.00,0.000000,,2013-02-04 06:41:00,
2013-02-03 21:51:00,19.0,16.0,-100.00,NE,47,1.0,4.0,86,0.00,,,0.00,0.000000,,2013-02-04 06:51:00,
2013-02-03 22:21:00,19.0,16.0,-100.00,NE,39,0.0,4.0,87,0.00,,,0.00,0.000000,,2013-02-04 07:21:00,
2013-02-03 22:31:00,19.0,16.0,-100.00,NE,39,0.0,4.0,87,0.00,,,0.00,0.000000,,2013-02-04 07:31:00,
2013-02-03 22:41:00,19.0,16.0,-100.00,NE,39,0.0,4.0,87,0.00,,,0.00,0.000000,,2013-02-04 07:41:00,
2013-02-03 22:51:00,19.0,16.0,-100.00,NE,39,0.0,4.0,87,0.00,,,0.00,0.000000,,2013-02-04 07:51:00,
2013-02-03 23:21:00,18.0,15.0,-100.00,South,170,1.0,3.0,87,0.00,,,0.00,0.000000,,2013-02-04 08:21:00,
2013-02-03 23:31:00,18.0,15.0,-100.00,South,170,1.0,3.0,87,0.00,,,0.00,0.000000,,2013-02-04 08:31:00,
2013-02-03 23:41:00,18.0,15.0,-100.00,South,170,1.0,3.0,87,0.00,,,0.00,0.000000,,2013-02-04 08:41:00,
2013-02-03 23:52:00,18.0,15.0,-100.00,South,170,1.0,3.0,87,0.00,,,0.00,0.000000,,2013-02-04 08:52:00,